• In Czech Republic
  • List of Countries
  • For 7 days
  • Water Temperature
  • Satellite Maps
  • Weather Map
  • Weather Widgets
  • user-avatar
    Login

    Hourly Weather Shoptykol

    Today, 16 July, Monday

    Time Temperature Precipitation Wind Pressure Humidity
    00:00 +26°C° 0 mm 4 mps 748 mmHg 59%
    01:00 +25°C° 0 mm 4 mps 748 mmHg 62%
    02:00 +25°C° 0 mm 4 mps 749 mmHg 64%
    03:00 +25°C° 0 mm 4 mps 749 mmHg 65%
    04:00 +26°C° 0 mm 5 mps 749 mmHg 63%
    05:00 +26°C° 0 mm 5 mps 749 mmHg 60%
    06:00 +27°C° 0 mm 5 mps 749 mmHg 57%
    07:00 +29°C° 0 mm 6 mps 749 mmHg 51%
    08:00 +32°C° 0 mm 6 mps 749 mmHg 46%
    09:00 +34°C° 0 mm 6 mps 749 mmHg 39%
    10:00 +35°C° 0 mm 6 mps 749 mmHg 36%
    11:00 +36°C° 0 mm 6 mps 749 mmHg 34%
    12:00 +36°C° 0 mm 6 mps 749 mmHg 31%
    13:00 +36°C° 0 mm 7 mps 748 mmHg 33%
    14:00 +36°C° 0 mm 7 mps 748 mmHg 33%
    15:00 +35°C° 0 mm 6 mps 749 mmHg 34%
    16:00 +34°C° 0.1 mm 5 mps 749 mmHg 36%
    17:00 +33°C° 0.1 mm 5 mps 749 mmHg 39%
    18:00 +32°C° 0.1 mm 5 mps 748 mmHg 42%
    19:00 +30°C° 0.2 mm 5 mps 748 mmHg 44%
    20:00 +29°C° 0.2 mm 6 mps 748 mmHg 46%
    21:00 +29°C° 0.2 mm 6 mps 748 mmHg 49%
    22:00 +28°C° 0.1 mm 7 mps 748 mmHg 50%
    23:00 +28°C° 0.1 mm 7 mps 748 mmHg 52%

    Tomorrow, 17 July, Tuesday

    Time Temperature Precipitation Wind Pressure Humidity
    00:00 +28°C° 0.1 mm 7 mps 747 mmHg 53%
    01:00 +27°C° 0.1 mm 7 mps 747 mmHg 54%
    02:00 +27°C° 0.1 mm 7 mps 747 mmHg 54%
    03:00 +27°C° 0.1 mm 7 mps 746 mmHg 55%
    04:00 +27°C° 0.6 mm 8 mps 746 mmHg 56%
    05:00 +27°C° 0.6 mm 8 mps 746 mmHg 57%
    06:00 +27°C° 0.6 mm 9 mps 746 mmHg 58%
    07:00 +28°C° 1 mm 9 mps 746 mmHg 56%
    08:00 +29°C° 1 mm 9 mps 745 mmHg 54%
    09:00 +31°C° 1 mm 9 mps 745 mmHg 52%
    10:00 +31°C° 0.2 mm 8 mps 745 mmHg 51%
    11:00 +32°C° 0.2 mm 8 mps 745 mmHg 49%
    12:00 +33°C° 0.2 mm 7 mps 745 mmHg 48%
    13:00 +33°C° 0 mm 7 mps 745 mmHg 47%
    14:00 +33°C° 0 mm 6 mps 745 mmHg 46%
    15:00 +34°C° 0 mm 6 mps 746 mmHg 45%
    16:00 +33°C° 0 mm 5 mps 746 mmHg 45%
    17:00 +33°C° 0 mm 5 mps 746 mmHg 46%
    18:00 +32°C° 0 mm 4 mps 746 mmHg 47%
    19:00 +30°C° 0 mm 4 mps 746 mmHg 50%
    20:00 +28°C° 0 mm 3 mps 746 mmHg 53%
    21:00 +27°C° 0 mm 2 mps 746 mmHg 56%
    22:00 +26°C° 0 mm 2 mps 746 mmHg 57%
    23:00 +26°C° 0 mm 1 mps 746 mmHg 58%

    Day after tomorrow, 18 July, Wednesday

    Time Temperature Precipitation Wind Pressure Humidity
    00:00 +25°C° 0 mm 1 mps 747 mmHg 59%
    01:00 +25°C° 0 mm 1 mps 747 mmHg 59%
    02:00 +25°C° 0 mm 1 mps 747 mmHg 59%
    03:00 +25°C° 0 mm 1 mps 747 mmHg 59%
    04:00 +26°C° 0 mm 1 mps 747 mmHg 58%
    05:00 +27°C° 0 mm 2 mps 747 mmHg 56%
    06:00 +28°C° 0 mm 2 mps 747 mmHg 54%
    07:00 +29°C° 0 mm 2 mps 748 mmHg 49%
    08:00 +31°C° 0 mm 3 mps 748 mmHg 44%
    09:00 +33°C° 0 mm 3 mps 748 mmHg 39%
    10:00 +33°C° 0 mm 3 mps 748 mmHg 38%
    11:00 +33°C° 0 mm 3 mps 748 mmHg 38%
    12:00 +33°C° 0 mm 3 mps 748 mmHg 37%
    13:00 +34°C° 0 mm 3 mps 748 mmHg 36%
    14:00 +34°C° 0 mm 3 mps 748 mmHg 35%
    15:00 +34°C° 0 mm 2 mps 748 mmHg 34%
    16:00 +34°C° 0 mm 2 mps 748 mmHg 35%
    17:00 +33°C° 0 mm 1 mps 748 mmHg 37%
    18:00 +33°C° 0 mm 1 mps 749 mmHg 38%
    19:00 +31°C° 0 mm 1 mps 749 mmHg 40%
    20:00 +29°C° 0 mm 1 mps 749 mmHg 43%
    21:00 +28°C° 0 mm 1 mps 749 mmHg 46%
    22:00 +27°C° 0 mm 1 mps 749 mmHg 47%
    23:00 +27°C° 0 mm 1 mps 750 mmHg 48%

    19 July, Thursday

    Time Temperature Precipitation Wind Pressure Humidity
    00:00 +26°C° 0 mm 1 mps 750 mmHg 49%
    01:00 +26°C° 0 mm 1 mps 750 mmHg 50%
    02:00 +26°C° 0 mm 1 mps 750 mmHg 51%
    03:00 +25°C° 0 mm 1 mps 750 mmHg 52%
    04:00 +26°C° 0 mm 1 mps 750 mmHg 51%
    05:00 +27°C° 0 mm 2 mps 750 mmHg 50%
    06:00 +28°C° 0 mm 2 mps 750 mmHg 49%
    07:00 +30°C° 0 mm 2 mps 751 mmHg 44%
    08:00 +31°C° 0 mm 2 mps 751 mmHg 39%
    09:00 +34°C° 0 mm 2 mps 751 mmHg 35%
    10:00 +35°C° 0 mm 2 mps 751 mmHg 32%
    11:00 +35°C° 0 mm 1 mps 750 mmHg 30%
    12:00 +36°C° 0 mm 1 mps 750 mmHg 27%
    13:00 +36°C° 0 mm 1 mps 750 mmHg 27%
    14:00 +36°C° 0 mm 1 mps 750 mmHg 27%
    15:00 +36°C° 0 mm 1 mps 750 mmHg 27%
    16:00 +35°C° 0 mm 1 mps 750 mmHg 29%
    17:00 +35°C° 0 mm 1 mps 750 mmHg 31%
    18:00 +36°C° 0 mm 2 mps 750 mmHg 33%
    19:00 +34°C° 0 mm 2 mps 750 mmHg 36%
    20:00 +31°C° 0 mm 3 mps 750 mmHg 39%
    21:00 +30°C° 0 mm 3 mps 751 mmHg 42%
    22:00 +29°C° 0 mm 3 mps 750 mmHg 44%
    23:00 +28°C° 0 mm 4 mps 750 mmHg 47%

    20 July, Friday

    Time Temperature Precipitation Wind Pressure Humidity
    00:00 +28°C° 0 mm 4 mps 750 mmHg 50%
    01:00 +27°C° 0 mm 4 mps 750 mmHg 53%
    02:00 +27°C° 0 mm 4 mps 750 mmHg 56%
    03:00 +26°C° 0 mm 4 mps 750 mmHg 60%
    04:00 +27°C° 0 mm 4 mps 750 mmHg 59%
    05:00 +28°C° 0 mm 4 mps 750 mmHg 58%
    06:00 +29°C° 0 mm 5 mps 750 mmHg 57%
    07:00 +30°C° 0 mm 5 mps 750 mmHg 51%
    08:00 +33°C° 0 mm 5 mps 750 mmHg 44%
    09:00 +35°C° 0 mm 5 mps 750 mmHg 38%
    10:00 +35°C° 0 mm 5 mps 750 mmHg 35%
    11:00 +36°C° 0 mm 5 mps 750 mmHg 33%
    12:00 +37°C° 0 mm 5 mps 750 mmHg 30%
    13:00 +37°C° 0 mm 5 mps 750 mmHg 30%
    14:00 +37°C° 0 mm 5 mps 750 mmHg 30%
    15:00 +37°C° 0 mm 5 mps 750 mmHg 30%
    16:00 +36°C° 0 mm 5 mps 749 mmHg 33%
    17:00 +35°C° 0 mm 5 mps 749 mmHg 36%
    18:00 +35°C° 0 mm 5 mps 749 mmHg 39%
    19:00 +33°C° 0 mm 5 mps 749 mmHg 43%
    20:00 +32°C° 0 mm 6 mps 749 mmHg 47%
    21:00 +30°C° 0 mm 6 mps 749 mmHg 51%
    22:00 +29°C° 0 mm 6 mps 749 mmHg 53%
    23:00 +28°C° 0 mm 5 mps 749 mmHg 55%

    21 July, Saturday

    Time Temperature Precipitation Wind Pressure Humidity
    00:00 +27°C° 0 mm 5 mps 749 mmHg 57%
    01:00 +26°C° 0 mm 5 mps 749 mmHg 60%
    02:00 +26°C° 0 mm 5 mps 749 mmHg 62%
    03:00 +25°C° 0 mm 5 mps 749 mmHg 64%
    04:00 +25°C° 0 mm 5 mps 750 mmHg 64%
    05:00 +26°C° 0 mm 6 mps 750 mmHg 63%
    06:00 +26°C° 0 mm 6 mps 750 mmHg 63%
    07:00 +27°C° 0 mm 6 mps 750 mmHg 59%
    08:00 +28°C° 0 mm 6 mps 750 mmHg 55%
    09:00 +30°C° 0 mm 6 mps 750 mmHg 51%
    10:00 +32°C° 0 mm 6 mps 750 mmHg 47%
    11:00 +33°C° 0 mm 6 mps 750 mmHg 43%
    12:00 +33°C° 0 mm 6 mps 750 mmHg 40%
    13:00 +34°C° 0 mm 6 mps 750 mmHg 39%
    14:00 +34°C° 0 mm 6 mps 750 mmHg 38%
    15:00 +34°C° 0 mm 7 mps 750 mmHg 37%
    16:00 +34°C° 0 mm 6 mps 750 mmHg 39%
    17:00 +33°C° 0 mm 6 mps 750 mmHg 42%
    18:00 +32°C° 0 mm 6 mps 750 mmHg 44%
    19:00 +30°C° 0 mm 6 mps 751 mmHg 47%
    20:00 +29°C° 0 mm 7 mps 751 mmHg 50%
    21:00 +27°C° 0 mm 7 mps 751 mmHg 53%
    22:00 +27°C° 0 mm 7 mps 751 mmHg 55%
    23:00 +26°C° 0 mm 7 mps 752 mmHg 56%
    Show more